Regional Weather Roundup
Issued by NWS

Current Version | Previous Version | Text Only | Print | Product List | Glossary On
Versions: 1 2 3 4 5 6 7 8 9 10 11 12 13 14 15 16 17 18 19 20 21 22 23 24 25 26 27 28 29 30 31 32 33 34 35 36 37 38 39 40 41 42 43 44 45 46 47 48 49 50
000
ASUS45 KTFX 280510
RWRMT
MONTANA REGIONAL WEATHER ROUNDUP
NATIONAL WEATHER SERVICE GREAT FALLS MT
1100 PM MDT SAT MAY 27 2017

NOTE: "FAIR" INDICATES FEW OR NO CLOUDS BELOW 12000 FEET WITH NO
SIGNIFICANT WEATHER AND/OR OBSTRUCTIONS TO VISIBILITY.

MTZ001>007-043-280600-
WEST OF THE DIVIDE

CITY           SKY/WX    TMP DP  RH WIND       PRES   REMARKS
KALISPELL      CLEAR     61  43  51 W5        30.11R
MISSOULA       CLEAR     58  44  60 CALM      30.17R
BUTTE          CLEAR     47  35  63 SE7       30.27R
MULLAN PASS    CLEAR     52  36  54 NW6       30.29R
ANACONDA         N/A     54  34  47 S3        30.24R
DEER LODGE       N/A     54  37  54 CALM      30.25R
EUREKA           N/A     63  43  48 CALM      30.09R
HAMILTON         N/A     54  39  58 CALM      30.20R
$$

MTZ008-052>055-280600-
SOUTHWEST MONTANA

CITY           SKY/WX    TMP DP  RH WIND       PRES   REMARKS
BOZEMAN        CLEAR     51  40  65 S9        30.21R
DILLON         CLEAR     49  34  56 SE6       30.23R
ENNIS          CLEAR     43  34  70 E6        30.29S
THREE FORKS      N/A     49  40  71 CALM      30.17R
$$

MTZ009-010-012-014-046-048-049-054-280600-
EAST SLOPES AND CENTRAL MONTANA

CITY           SKY/WX    TMP DP  RH WIND       PRES   REMARKS
CUT BANK       CLEAR     54  41  61 W13       30.12R
GREAT FALLS    CLOUDY    53  41  63 W3        30.13R
MALMSTROM AFB  PTCLDY    57  44  60 SE5       30.13R
HELENA         CLEAR     64  37  36 SW10      30.16R
CHOTEAU          N/A     52  36  54 SW7       30.16R
$$

MTZ011-013-016-021-045-047-050-051-280600-
NORTH CENTRAL MONTANA

CITY           SKY/WX    TMP DP  RH WIND       PRES   REMARKS
HAVRE          PTCLDY    57  45  64 S9        30.06R
LEWISTOWN      LGT RAIN  53  41  63 N12       30.19R
N BAR RANCH    RAIN      55  39  54 N16       30.21R
CHINOOK          N/A     57  48  72 CALM      30.05S
FORT BENTON      N/A     68  37  32 MISG      30.09F
$$

MTZ017>020-022>027-061-062-280600-
NORTHEAST MONTANA

CITY           SKY/WX    TMP DP  RH WIND       PRES   REMARKS
GLASGOW        CLOUDY    63  38  39 NW10      30.00R
JORDAN           N/A     67  34  29 NW13      30.04R
SIDNEY         PTCLDY    54  39  57 W14       29.93R
WOLF POINT     CLOUDY    62  38  40 NW12      29.97R
MALTA          PTCLDY    57  48  72 W12       30.03R
PLENTYWOOD       N/A     54  32  43 NW8       29.94R
POPLAR           N/A     57  39  51 N6        29.96R
$$

MTZ028>42-056>058-280600-
SOUTHCENTRAL AND SOUTHEAST MONTANA

CITY           SKY/WX    TMP DP  RH WIND       PRES   REMARKS
BAKER          CLOUDY    55  40  56 NW7       29.99R
BILLINGS       CLOUDY    63  38  39 W12       30.12R
LIVINGSTON     CLEAR     48  38  68 W9        30.20R
MILES CITY     CLOUDY    60  34  37 W9        30.00R
BIG TIMBER     PTCLDY    55  36  47 W14       30.21R
FORSYTH          N/A     63  36  36 SW6       30.03R
LAUREL           N/A     59  35  40 CALM      30.11F
$$

REGIONAL REPORTS...DAKOTAS

CITY           SKY/WX    TMP DP  RH WIND       PRES   REMARKS
WILLISTON      CLEAR     52  35  52 CALM      29.91R
MINOT          PTCLDY    51  43  74 SW7       29.84R
DICKINSON      PTCLDY    50  40  68 W10       29.90R
BEACH            N/A     54  43  66 W10       29.99R
CROSBY           N/A     48  41  76 W9        29.90R
TIOGA            N/A     52  39  62 N9        29.90S
WATFORD CITY     N/A     52  36  54 CALM      29.90R
BISMARCK       CLEAR     51  44  77 CALM      29.87S
GRAND FORKS    CLOUDY    53  49  86 W10       29.74R
FARGO          PTCLDY    54  46  74 W8        29.76R
BUFFALO SD       N/A     51  44  77 W9        29.94R
RAPID CITY     PTCLDY    52  40  63 W9        30.05R
$$

REGIONAL REPORTS...WYOMING/IDAHO/WASHINGTON

CITY           SKY/WX    TMP DP  RH WIND       PRES   REMARKS
GILLETTE       CLEAR     47  40  76 W10       30.13S
SHERIDAN       MOCLDY    59  40  49 W16       30.15R
BUFFALO WY     CLOUDY    53  38  56 W10       30.19S
CODY           CLOUDY    52  36  54 S5        30.24R
YELLOWSTONE LA   N/A     33  31  92 CALM      30.39R
IDAHO FALLS    CLEAR     54  43  66 SW5       30.26R
SALMON         CLEAR     50  39  66 CALM      30.18R
BOISE          CLEAR     63  37  38 S3        30.15R
SPOKANE        PTCLDY    69  42  37 SW6       30.13R
$$

REGIONAL REPORTS...ALBERTA

CITY           SKY/WX    TMP DP  RH WIND       PRES   REMARKS
EDMONTON       CLEAR     59  36  41 NW8       30.11R
CALGARY        MOCLDY    64  37  36 N10       30.15R
LETHBRIDGE     MOCLDY    59  48  67 E16       30.11F
MEDICINE HAT   CLEAR     57  46  67 SW5       30.04R
WATERTON GATE    N/A     54  41  62 NW3         N/A
MILK RIVER       N/A     63  45  51 NW24G33     N/A
ONEFOUR          N/A     52  43  71 NE6         N/A
$$

REGIONAL REPORTS...SASKATCHEWAN

CITY           SKY/WX    TMP DP  RH WIND       PRES   REMARKS
SWIFT CURRENT  CLEAR     55  36  47 N6        30.00R
REGINA         PTCLDY    48  34  57 NW7       29.92R
SASKATOON      MOCLDY    55  41  58 N8        29.95R
VAL MARIE        N/A     55  41  58 NW7         N/A
ROCKGLEN         N/A     55  32  41 NW9         N/A
ASSINIBOIA       N/A     57  37  47 N8          N/A
$$



USA.gov is the U.S. government's official web portal to all federal, state and local government web resources and services.